User: anonymous   Login
Location: Unspecified
(0.0000°N, 0.0000°E)
Time: 07:48:36
(UTC+00:00)
Language:

TBA - TO BE ASSIGNED - Orbit

View from above orbital plane
View from above orbital plane
View from above satellite
View from above satellite

Ground track
Ground track

The orbit is defined by the following mean orbital elements,

1 68061U          26145.15241372 +.00000000 +00000-0 +13453-2 0 00005
2 68061  53.1583  52.6798 0000373  52.8867 307.2170 15.34400231    07
Epoch (UTC): 25 May 2026 03:39:28
Eccentricity: 0.0000373
inclination: 53.1583°
perigee height: 462 km
apogee height: 463 km
right ascension of ascending node: 52.6798°
argument of perigee: 52.8867°
revolutions per day: 15.34400231
mean anomaly at epoch: 307.2170°

The dashed part of the orbit path shows where the satellite is in the earth's shadow,  

DLR